Hourly Data Report for March 04, 2021

OTTAWA INTL A
ONTARIO
Current Station Operator: NAVCAN

45°19'00.000" N
75°40'00.000" W
114.90 m
6106001
71628
YOW

Download Data

Hourly Data (March 2021)
Hourly Data Report for March 4, 2021
TIME
LST
Temp Definition
°C
Dew Point Definition
°C
Rel Hum Definition
%
Precip. Amount Definition
mm

Wind Dir Definition
10's deg

Wind Spd Definition
km/h
Visibility Definition
km
Stn Press Definition
kPa
Hmdx Definition


Wind Chill Definition


Weather Definition


00:00 -3.6 -8.4 70   32 18 24.1 99.87   -9 LegendNANA
01:00 -4.2 -9.1 69   32 25 24.1 99.93   -11 Mostly Cloudy
02:00 -5.4 -10.3 68   33 25 24.1 99.94   -13 LegendNANA
03:00 -6.6 -12.2 65   33 22 24.1 99.95   -14 LegendNANA
04:00 -7.9 -12.6 69   32 20 24.1 99.97   -15 Clear
05:00 -8.2 -13.9 64   33 27 24.1 100.01   -17 LegendNANA
06:00 -10.0 -13.7 75   30 17 24.1 100.08   -17 LegendNANA
07:00 -10.5 -15.8 66   33 21 24.1 100.16   -19 Clear
08:00 -11.5 -16.9 65   32 29 24.1 100.24   -21 LegendNANA
09:00 -11.9 -19.1 56   33 26 24.1 100.26   -21 LegendNANA
10:00 -12.1 -19.1 56   27 32 24.1 100.25   -23 Clear
11:00 -11.5 -19.2 53   28 32 24.1 100.21   -22 LegendNANA
12:00 -10.5 -19.4 49   28 32 24.1 100.19   -20 Blowing Snow
13:00 -10.0 -19.0 48   29 30 24.1 100.15   -20 Clear
14:00 -9.2 -18.6 47   28 27 24.1 100.12   -18 LegendNANA
15:00 -8.9 -19.8 42   28 34 24.1 100.10   -19 LegendNANA
16:00 -8.2 -18.9 42   28 39 24.1 100.07   -18 Mainly Clear
17:00 -8.8 -18.8 45   30 34 24.1 100.09   -18 LegendNANA
18:00 -8.7 -18.5 45   29 32 24.1 100.12   -18 Blowing Snow
19:00 -8.8 -18.0 48   29 32 24.1 100.14   -18 Blowing Snow
20:00 -9.1 -18.9 45   30 31 24.1 100.15   -18 LegendNANA
21:00 -9.7 -19.3 46   29 32 24.1 100.14   -19 Blowing Snow
22:00 -10.3 -19.7 47   30 32 24.1 100.12   -20 Cloudy
23:00 -11.2 -18.8 54   29 31 24.1 100.08   -21 LegendNANA

Notes on Data Quality.

Legend

  • E = Estimated
  • M = Missing
  • NA = Not Available*
  • [empty] = Indicates an unobserved value
Date modified: